"Time","Value","Approval","myLocation"
"2023-05-06 00:00",12.437,"Working","OW484"
"2023-05-06 01:00",12.432,"Working","OW484"
"2023-05-06 02:00",12.431,"Working","OW484"
"2023-05-06 03:00",12.425,"Working","OW484"
"2023-05-06 04:00",12.427,"Working","OW484"
"2023-05-06 05:00",12.423,"Working","OW484"
"2023-05-06 06:00",12.423,"Working","OW484"
"2023-05-06 07:00",12.42,"Working","OW484"
"2023-05-06 08:00",12.423,"Working","OW484"
"2023-05-06 09:00",12.418,"Working","OW484"
"2023-05-06 10:00",12.421,"Working","OW484"
"2023-05-06 11:00",12.417,"Working","OW484"
"2023-05-06 12:00",12.42,"Working","OW484"
"2023-05-06 13:00",12.416,"Working","OW484"
"2023-05-06 14:00",12.417,"Working","OW484"
"2023-05-06 15:00",12.414,"Working","OW484"
"2023-05-06 16:00",12.418,"Working","OW484"
"2023-05-06 17:00",12.416,"Working","OW484"
"2023-05-06 18:00",12.42,"Working","OW484"
"2023-05-06 19:00",12.418,"Working","OW484"
"2023-05-06 20:00",12.423,"Working","OW484"
"2023-05-06 21:00",12.422,"Working","OW484"
"2023-05-06 22:00",12.427,"Working","OW484"
"2023-05-06 23:00",12.424,"Working","OW484"
"2023-05-07 00:00",12.426,"Working","OW484"
"2023-05-07 01:00",12.425,"Working","OW484"
"2023-05-07 02:00",12.429,"Working","OW484"
"2023-05-07 03:00",12.426,"Working","OW484"
"2023-05-07 04:00",12.43,"Working","OW484"
"2023-05-07 05:00",12.426,"Working","OW484"
"2023-05-07 06:00",12.43,"Working","OW484"
"2023-05-07 07:00",12.428,"Working","OW484"
"2023-05-07 08:00",12.432,"Working","OW484"
"2023-05-07 09:00",12.431,"Working","OW484"
"2023-05-07 10:00",12.435,"Working","OW484"
"2023-05-07 11:00",12.433,"Working","OW484"
"2023-05-07 12:00",12.436,"Working","OW484"
"2023-05-07 13:00",12.433,"Working","OW484"
"2023-05-07 14:00",12.436,"Working","OW484"
"2023-05-07 15:00",12.436,"Working","OW484"
"2023-05-07 16:00",12.439,"Working","OW484"
"2023-05-07 17:00",12.436,"Working","OW484"
"2023-05-07 18:00",12.439,"Working","OW484"
"2023-05-07 19:00",12.437,"Working","OW484"
"2023-05-07 20:00",12.441,"Working","OW484"
"2023-05-07 21:00",12.441,"Working","OW484"
"2023-05-07 22:00",12.446,"Working","OW484"
"2023-05-07 23:00",12.443,"Working","OW484"
"2023-05-08 00:00",12.446,"Working","OW484"
"2023-05-08 01:00",12.443,"Working","OW484"
"2023-05-08 02:00",12.444,"Working","OW484"
"2023-05-08 03:00",12.441,"Working","OW484"
"2023-05-08 04:00",12.568,"Working","OW484"
"2023-05-08 05:00",12.539,"Working","OW484"
"2023-05-08 06:00",12.507,"Working","OW484"
"2023-05-08 07:00",12.483,"Working","OW484"
"2023-05-08 08:00",12.475,"Working","OW484"
"2023-05-08 09:00",12.467,"Working","OW484"
"2023-05-08 10:00",12.466,"Working","OW484"
"2023-05-08 11:00",12.46,"Working","OW484"
"2023-05-08 12:00",12.461,"Working","OW484"
"2023-05-08 13:00",12.457,"Working","OW484"
"2023-05-08 14:00",12.461,"Working","OW484"
"2023-05-08 15:00",12.457,"Working","OW484"
"2023-05-08 16:00",12.515,"Working","OW484"
"2023-05-08 17:00",12.478,"Working","OW484"
"2023-05-08 18:00",12.532,"Working","OW484"
"2023-05-08 19:00",12.489,"Working","OW484"
"2023-05-08 20:00",12.481,"Working","OW484"
"2023-05-08 21:00",12.511,"Working","OW484"
"2023-05-08 22:00",12.493,"Working","OW484"
"2023-05-08 23:00",12.483,"Working","OW484"
"2023-05-09 00:00",12.483,"Working","OW484"
"2023-05-09 01:00",12.485,"Working","OW484"
"2023-05-09 02:00",12.507,"Working","OW484"
"2023-05-09 03:00",12.493,"Working","OW484"
"2023-05-09 04:00",12.546,"Working","OW484"
"2023-05-09 05:00",12.586,"Working","OW484"
"2023-05-09 06:00",12.536,"Working","OW484"
"2023-05-09 07:00",12.517,"Working","OW484"
"2023-05-09 08:00",12.511,"Working","OW484"
"2023-05-09 09:00",12.505,"Working","OW484"
"2023-05-09 10:00",12.508,"Working","OW484"
"2023-05-09 11:00",12.505,"Working","OW484"
"2023-05-09 12:00",12.506,"Working","OW484"
"2023-05-09 13:00",12.506,"Working","OW484"
"2023-05-09 14:00",12.508,"Working","OW484"
"2023-05-09 15:00",12.506,"Working","OW484"
"2023-05-09 16:00",12.507,"Working","OW484"
"2023-05-09 17:00",12.504,"Working","OW484"
"2023-05-09 18:00",12.506,"Working","OW484"
"2023-05-09 19:00",12.504,"Working","OW484"
"2023-05-09 20:00",12.507,"Working","OW484"
"2023-05-09 21:00",12.565,"Working","OW484"
"2023-05-09 22:00",12.533,"Working","OW484"
"2023-05-09 23:00",12.521,"Working","OW484"
"2023-05-10 00:00",12.573,"Working","OW484"
"2023-05-10 01:00",12.546,"Working","OW484"
"2023-05-10 02:00",12.535,"Working","OW484"
"2023-05-10 03:00",12.531,"Working","OW484"
"2023-05-10 04:00",12.556,"Working","OW484"
"2023-05-10 05:00",12.54,"Working","OW484"
"2023-05-10 06:00",12.536,"Working","OW484"
"2023-05-10 07:00",12.528,"Working","OW484"
"2023-05-10 08:00",12.529,"Working","OW484"
"2023-05-10 09:00",12.525,"Working","OW484"
"2023-05-10 10:00",12.527,"Working","OW484"
"2023-05-10 11:00",12.526,"Working","OW484"
"2023-05-10 12:00",12.53,"Working","OW484"
"2023-05-10 13:00",12.526,"Working","OW484"
"2023-05-10 14:00",12.562,"Working","OW484"
"2023-05-10 15:00",12.545,"Working","OW484"
"2023-05-10 16:00",12.543,"Working","OW484"
"2023-05-10 17:00",12.537,"Working","OW484"
"2023-05-10 18:00",12.539,"Working","OW484"
"2023-05-10 19:00",12.536,"Working","OW484"
"2023-05-10 20:00",12.534,"Working","OW484"
"2023-05-10 21:00",12.532,"Working","OW484"
"2023-05-10 22:00",12.529,"Working","OW484"
"2023-05-10 23:00",12.528,"Working","OW484"
"2023-05-11 00:00",12.527,"Working","OW484"
"2023-05-11 01:00",12.574,"Working","OW484"
"2023-05-11 02:00",12.549,"Working","OW484"
"2023-05-11 03:00",12.54,"Working","OW484"
"2023-05-11 04:00",12.538,"Working","OW484"
"2023-05-11 05:00",12.648,"Working","OW484"
"2023-05-11 06:00",12.58,"Working","OW484"
"2023-05-11 07:00",12.561,"Working","OW484"
"2023-05-11 08:00",12.55,"Working","OW484"
"2023-05-11 09:00",12.543,"Working","OW484"
"2023-05-11 10:00",12.539,"Working","OW484"
"2023-05-11 11:00",12.537,"Working","OW484"
"2023-05-11 12:00",12.535,"Working","OW484"
"2023-05-11 13:00",12.534,"Working","OW484"
"2023-05-11 14:00",12.534,"Working","OW484"
"2023-05-11 15:00",12.534,"Working","OW484"
"2023-05-11 16:00",12.589,"Working","OW484"
"2023-05-11 17:00",12.555,"Working","OW484"
"2023-05-11 18:00",12.543,"Working","OW484"
"2023-05-11 19:00",12.536,"Working","OW484"
"2023-05-11 20:00",12.531,"Working","OW484"
"2023-05-11 21:00",12.526,"Working","OW484"
"2023-05-11 22:00",12.543,"Working","OW484"
"2023-05-11 23:00",12.543,"Working","OW484"
"2023-05-12 00:00",12.536,"Working","OW484"
"2023-05-12 01:00",12.532,"Working","OW484"
"2023-05-12 02:00",12.598,"Working","OW484"
"2023-05-12 03:00",12.593,"Working","OW484"
"2023-05-12 04:00",12.574,"Working","OW484"
"2023-05-12 05:00",12.565,"Working","OW484"
"2023-05-12 06:00",12.615,"Working","OW484"
"2023-05-12 07:00",12.584,"Working","OW484"
"2023-05-12 08:00",12.579,"Working","OW484"
"2023-05-12 09:00",12.573,"Working","OW484"
"2023-05-12 10:00",12.575,"Working","OW484"
"2023-05-12 11:00",12.572,"Working","OW484"
"2023-05-12 12:00",12.577,"Working","OW484"
"2023-05-12 13:00",12.575,"Working","OW484"
"2023-05-12 14:00",12.582,"Working","OW484"
"2023-05-12 15:00",12.581,"Working","OW484"
"2023-05-12 16:00",12.648,"Working","OW484"
"2023-05-12 17:00",12.612,"Working","OW484"
"2023-05-12 18:00",12.607,"Working","OW484"
"2023-05-12 19:00",12.599,"Working","OW484"
"2023-05-12 20:00",12.63,"Working","OW484"
"2023-05-12 21:00",12.61,"Working","OW484"
"2023-05-12 22:00",12.608,"Working","OW484"
"2023-05-12 23:00",12.613,"Working","OW484"
"2023-05-13 00:00",12.631,"Working","OW484"
"2023-05-13 01:00",12.617,"Working","OW484"
"2023-05-13 02:00",12.654,"Working","OW484"
"2023-05-13 03:00",12.651,"Working","OW484"
"2023-05-13 04:00",12.659,"Working","OW484"
"2023-05-13 05:00",12.644,"Working","OW484"
"2023-05-13 06:00",12.644,"Working","OW484"
"2023-05-13 07:00",12.638,"Working","OW484"
"2023-05-13 08:00",12.641,"Working","OW484"
"2023-05-13 09:00",12.638,"Working","OW484"
"2023-05-13 10:00",12.641,"Working","OW484"
"2023-05-13 11:00",12.638,"Working","OW484"
"2023-05-13 12:00",12.643,"Working","OW484"
"2023-05-13 13:00",12.642,"Working","OW484"
"2023-05-13 14:00",12.648,"Working","OW484"
"2023-05-13 15:00",12.674,"Working","OW484"
"2023-05-13 16:00",12.667,"Working","OW484"
"2023-05-13 17:00",12.732,"Working","OW484"
"2023-05-13 18:00",12.694,"Working","OW484"
"2023-05-13 19:00",12.678,"Working","OW484"
"2023-05-13 20:00",12.672,"Working","OW484"
"2023-05-13 21:00",12.695,"Working","OW484"
"2023-05-13 22:00",12.679,"Working","OW484"
"2023-05-13 23:00",12.667,"Working","OW484"
"2023-05-14 00:00",12.738,"Working","OW484"
"2023-05-14 01:00",12.733,"Working","OW484"
"2023-05-14 02:00",12.705,"Working","OW484"
"2023-05-14 03:00",12.69,"Working","OW484"
"2023-05-14 04:00",12.749,"Working","OW484"
"2023-05-14 05:00",12.711,"Working","OW484"
"2023-05-14 06:00",12.704,"Working","OW484"
"2023-05-14 07:00",12.698,"Working","OW484"
"2023-05-14 08:00",12.698,"Working","OW484"
"2023-05-14 09:00",12.692,"Working","OW484"
"2023-05-14 10:00",12.694,"Working","OW484"
"2023-05-14 11:00",12.69,"Working","OW484"
"2023-05-14 12:00",12.691,"Working","OW484"
"2023-05-14 13:00",12.687,"Working","OW484"
"2023-05-14 14:00",12.724,"Working","OW484"
"2023-05-14 15:00",12.708,"Working","OW484"
"2023-05-14 16:00",12.742,"Working","OW484"
"2023-05-14 17:00",12.718,"Working","OW484"
"2023-05-14 18:00",12.712,"Working","OW484"
"2023-05-14 19:00",12.704,"Working","OW484"
"2023-05-14 20:00",12.748,"Working","OW484"
"2023-05-14 21:00",12.717,"Working","OW484"
"2023-05-14 22:00",12.745,"Working","OW484"
"2023-05-14 23:00",12.715,"Working","OW484"
"2023-05-15 00:00",12.775,"Working","OW484"
"2023-05-15 01:00",12.73,"Working","OW484"
"2023-05-15 02:00",12.721,"Working","OW484"
"2023-05-15 03:00",12.814,"Working","OW484"
"2023-05-15 04:00",12.798,"Working","OW484"
"2023-05-15 05:00",12.769,"Working","OW484"
"2023-05-15 06:00",12.782,"Working","OW484"
"2023-05-15 07:00",12.761,"Working","OW484"
"2023-05-15 08:00",12.754,"Working","OW484"
"2023-05-15 09:00",12.747,"Working","OW484"
"2023-05-15 10:00",12.745,"Working","OW484"
"2023-05-15 11:00",12.74,"Working","OW484"
"2023-05-15 12:00",12.74,"Working","OW484"
"2023-05-15 13:00",12.737,"Working","OW484"
"2023-05-15 14:00",12.784,"Working","OW484"
"2023-05-15 15:00",12.758,"Working","OW484"
"2023-05-15 16:00",12.754,"Working","OW484"
"2023-05-15 17:00",12.777,"Working","OW484"
"2023-05-15 18:00",12.767,"Working","OW484"
"2023-05-15 19:00",12.759,"Working","OW484"
"2023-05-15 20:00",12.811,"Working","OW484"
"2023-05-15 21:00",12.776,"Working","OW484"
"2023-05-15 22:00",12.768,"Working","OW484"
"2023-05-15 23:00",12.758,"Working","OW484"
"2023-05-16 00:00",12.757,"Working","OW484"
"2023-05-16 01:00",12.752,"Working","OW484"
"2023-05-16 02:00",12.819,"Working","OW484"
"2023-05-16 03:00",12.833,"Working","OW484"
"2023-05-16 04:00",12.806,"Working","OW484"
"2023-05-16 05:00",12.795,"Working","OW484"
"2023-05-16 06:00",12.792,"Working","OW484"
"2023-05-16 07:00",12.797,"Working","OW484"
"2023-05-16 08:00",12.837,"Working","OW484"
"2023-05-16 09:00",12.814,"Working","OW484"
"2023-05-16 10:00",12.813,"Working","OW484"
"2023-05-16 11:00",12.808,"Working","OW484"
"2023-05-16 12:00",12.809,"Working","OW484"
"2023-05-16 13:00",12.806,"Working","OW484"
"2023-05-16 14:00",12.81,"Working","OW484"
"2023-05-16 15:00",12.807,"Working","OW484"
"2023-05-16 16:00",12.812,"Working","OW484"
"2023-05-16 17:00",12.812,"Working","OW484"
"2023-05-16 18:00",12.869,"Working","OW484"
"2023-05-16 19:00",12.837,"Working","OW484"
"2023-05-16 20:00",12.83,"Working","OW484"
"2023-05-16 21:00",12.821,"Working","OW484"
"2023-05-16 22:00",12.819,"Working","OW484"
"2023-05-16 23:00",12.811,"Working","OW484"
"2023-05-17 00:00",12.812,"Working","OW484"
"2023-05-17 01:00",12.84,"Working","OW484"
"2023-05-17 02:00",12.827,"Working","OW484"
"2023-05-17 03:00",12.89,"Working","OW484"
"2023-05-17 04:00",12.852,"Working","OW484"
"2023-05-17 05:00",12.842,"Working","OW484"
"2023-05-17 06:00",12.843,"Working","OW484"
"2023-05-17 07:00",12.837,"Working","OW484"
"2023-05-17 08:00",12.837,"Working","OW484"
"2023-05-17 09:00",12.835,"Working","OW484"
"2023-05-17 10:00",12.839,"Working","OW484"
"2023-05-17 11:00",12.834,"Working","OW484"
"2023-05-17 12:00",12.837,"Working","OW484"
"2023-05-17 13:00",12.834,"Working","OW484"
"2023-05-17 14:00",12.838,"Working","OW484"
"2023-05-17 15:00",12.835,"Working","OW484"
"2023-05-17 16:00",12.839,"Working","OW484"
"2023-05-17 17:00",12.838,"Working","OW484"
"2023-05-17 18:00",12.838,"Working","OW484"
"2023-05-17 19:00",12.834,"Working","OW484"
"2023-05-17 20:00",12.833,"Working","OW484"
"2023-05-17 21:00",12.829,"Working","OW484"
"2023-05-17 22:00",12.831,"Working","OW484"
"2023-05-17 23:00",12.825,"Working","OW484"
"2023-05-18 00:00",12.826,"Working","OW484"
"2023-05-18 01:00",12.822,"Working","OW484"
"2023-05-18 02:00",12.825,"Working","OW484"
"2023-05-18 03:00",12.823,"Working","OW484"
"2023-05-18 04:00",12.83,"Working","OW484"
"2023-05-18 05:00",12.904,"Working","OW484"
"2023-05-18 06:00",12.87,"Working","OW484"
"2023-05-18 07:00",12.861,"Working","OW484"
"2023-05-18 08:00",12.861,"Working","OW484"
"2023-05-18 09:00",12.858,"Working","OW484"
"2023-05-18 10:00",12.861,"Working","OW484"
"2023-05-18 11:00",12.858,"Working","OW484"
"2023-05-18 12:00",12.861,"Working","OW484"
"2023-05-18 13:00",12.915,"Working","OW484"
"2023-05-18 14:00",12.887,"Working","OW484"
"2023-05-18 15:00",12.878,"Working","OW484"
"2023-05-18 16:00",12.879,"Working","OW484"
"2023-05-18 17:00",12.878,"Working","OW484"
"2023-05-18 18:00",12.882,"Working","OW484"
"2023-05-18 19:00",12.882,"Working","OW484"
"2023-05-18 20:00",12.887,"Working","OW484"
"2023-05-18 21:00",12.93,"Working","OW484"
"2023-05-18 22:00",12.91,"Working","OW484"
"2023-05-18 23:00",12.901,"Working","OW484"
"2023-05-19 00:00",12.9,"Working","OW484"
"2023-05-19 01:00",12.896,"Working","OW484"
"2023-05-19 02:00",12.934,"Working","OW484"
"2023-05-19 03:00",12.914,"Working","OW484"
"2023-05-19 04:00",12.967,"Working","OW484"
"2023-05-19 05:00",13.05,"Working","OW484"
"2023-05-19 06:00",13.053,"Working","OW484"
"2023-05-19 07:00",12.996,"Working","OW484"
"2023-05-19 08:00",12.98,"Working","OW484"
"2023-05-19 09:00",12.965,"Working","OW484"
"2023-05-19 10:00",12.962,"Working","OW484"
"2023-05-19 11:00",12.956,"Working","OW484"
"2023-05-19 12:00",12.958,"Working","OW484"
"2023-05-19 13:00",12.953,"Working","OW484"
"2023-05-19 14:00",13.092,"Working","OW484"
"2023-05-19 15:00",13.029,"Working","OW484"
"2023-05-19 16:00",13,"Working","OW484"
"2023-05-19 17:00",12.985,"Working","OW484"
"2023-05-19 18:00",13.016,"Working","OW484"
"2023-05-19 19:00",12.991,"Working","OW484"
"2023-05-19 20:00",12.984,"Working","OW484"
"2023-05-19 21:00",12.977,"Working","OW484"
"2023-05-19 22:00",12.976,"Working","OW484"
"2023-05-19 23:00",12.996,"Working","OW484"
"2023-05-20 00:00",12.995,"Working","OW484"
"2023-05-20 01:00",12.978,"Working","OW484"
"2023-05-20 02:00",12.973,"Working","OW484"
"2023-05-20 03:00",12.966,"Working","OW484"
"2023-05-20 04:00",12.97,"Working","OW484"
"2023-05-20 05:00",12.969,"Working","OW484"
"2023-05-20 06:00",12.972,"Working","OW484"
"2023-05-20 07:00",12.971,"Working","OW484"
"2023-05-20 08:00",12.976,"Working","OW484"
"2023-05-20 09:00",12.975,"Working","OW484"
"2023-05-20 10:00",12.98,"Working","OW484"
"2023-05-20 11:00",12.978,"Working","OW484"
"2023-05-20 12:00",12.981,"Working","OW484"
"2023-05-20 13:00",12.979,"Working","OW484"
"2023-05-20 14:00",13.038,"Working","OW484"
"2023-05-20 15:00",13.005,"Working","OW484"
"2023-05-20 16:00",12.999,"Working","OW484"
"2023-05-20 17:00",12.991,"Working","OW484"
"2023-05-20 18:00",12.994,"Working","OW484"
"2023-05-20 19:00",12.991,"Working","OW484"
"2023-05-20 20:00",12.994,"Working","OW484"
"2023-05-20 21:00",12.992,"Working","OW484"
"2023-05-20 22:00",12.994,"Working","OW484"
"2023-05-20 23:00",12.989,"Working","OW484"
"2023-05-21 00:00",12.991,"Working","OW484"
"2023-05-21 01:00",12.988,"Working","OW484"
"2023-05-21 02:00",12.991,"Working","OW484"
"2023-05-21 03:00",12.99,"Working","OW484"
"2023-05-21 04:00",12.996,"Working","OW484"
"2023-05-21 05:00",12.994,"Working","OW484"
"2023-05-21 06:00",13.001,"Working","OW484"
"2023-05-21 07:00",13,"Working","OW484"
"2023-05-21 08:00",13.006,"Working","OW484"
"2023-05-21 09:00",13.005,"Working","OW484"
"2023-05-21 10:00",13.01,"Working","OW484"
"2023-05-21 11:00",13.009,"Working","OW484"
"2023-05-21 12:00",13.014,"Working","OW484"
"2023-05-21 13:00",13.014,"Working","OW484"
"2023-05-21 14:00",13.07,"Working","OW484"
"2023-05-21 15:00",13.041,"Working","OW484"
"2023-05-21 16:00",13.034,"Working","OW484"
"2023-05-21 17:00",13.029,"Working","OW484"
"2023-05-21 18:00",13.031,"Working","OW484"
"2023-05-21 19:00",13.03,"Working","OW484"
"2023-05-21 20:00",13.034,"Working","OW484"
"2023-05-21 21:00",13.032,"Working","OW484"
"2023-05-21 22:00",13.036,"Working","OW484"
"2023-05-21 23:00",13.033,"Working","OW484"
"2023-05-22 00:00",13.036,"Working","OW484"
"2023-05-22 01:00",13.033,"Working","OW484"
"2023-05-22 02:00",13.036,"Working","OW484"
"2023-05-22 03:00",13.036,"Working","OW484"
"2023-05-22 04:00",13.041,"Working","OW484"
"2023-05-22 05:00",13.04,"Working","OW484"
"2023-05-22 06:00",13.045,"Working","OW484"
"2023-05-22 07:00",13.043,"Working","OW484"
"2023-05-22 08:00",13.048,"Working","OW484"
"2023-05-22 09:00",13.046,"Working","OW484"
"2023-05-22 10:00",13.051,"Working","OW484"
"2023-05-22 11:00",13.05,"Working","OW484"
"2023-05-22 12:00",13.054,"Working","OW484"
"2023-05-22 13:00",13.051,"Working","OW484"
"2023-05-22 14:00",13.055,"Working","OW484"
"2023-05-22 15:00",13.053,"Working","OW484"
"2023-05-22 16:00",13.057,"Working","OW484"
"2023-05-22 17:00",13.054,"Working","OW484"
"2023-05-22 18:00",13.104,"Working","OW484"
"2023-05-22 19:00",13.078,"Working","OW484"
"2023-05-22 20:00",13.078,"Working","OW484"
"2023-05-22 21:00",13.074,"Working","OW484"
"2023-05-22 22:00",13.078,"Working","OW484"
"2023-05-22 23:00",13.075,"Working","OW484"
"2023-05-23 00:00",13.078,"Working","OW484"
"2023-05-23 01:00",13.076,"Working","OW484"
"2023-05-23 02:00",13.164,"Working","OW484"
"2023-05-23 03:00",13.152,"Working","OW484"
"2023-05-23 04:00",13.177,"Working","OW484"
"2023-05-23 05:00",13.154,"Working","OW484"
"2023-05-23 06:00",13.135,"Working","OW484"
"2023-05-23 07:00",13.122,"Working","OW484"
"2023-05-23 08:00",13.119,"Working","OW484"
"2023-05-23 09:00",13.113,"Working","OW484"
"2023-05-23 10:00",13.111,"Working","OW484"
"2023-05-23 11:00",13.157,"Working","OW484"
"2023-05-23 12:00",13.133,"Working","OW484"
"2023-05-23 13:00",13.121,"Working","OW484"
"2023-05-23 14:00",13.174,"Working","OW484"
"2023-05-23 15:00",13.158,"Working","OW484"
"2023-05-23 16:00",13.14,"Working","OW484"
"2023-05-23 17:00",13.129,"Working","OW484"
"2023-05-23 18:00",13.127,"Working","OW484"
"2023-05-23 19:00",13.122,"Working","OW484"
"2023-05-23 20:00",13.124,"Working","OW484"
"2023-05-23 21:00",13.153,"Working","OW484"
"2023-05-23 22:00",13.14,"Working","OW484"
"2023-05-23 23:00",13.132,"Working","OW484"
"2023-05-24 00:00",13.134,"Working","OW484"
"2023-05-24 01:00",13.129,"Working","OW484"
"2023-05-24 02:00",13.131,"Working","OW484"
"2023-05-24 03:00",13.186,"Working","OW484"
"2023-05-24 04:00",13.251,"Working","OW484"
"2023-05-24 05:00",13.207,"Working","OW484"
"2023-05-24 06:00",13.181,"Working","OW484"
"2023-05-24 07:00",13.165,"Working","OW484"
"2023-05-24 08:00",13.162,"Working","OW484"
"2023-05-24 09:00",13.155,"Working","OW484"
"2023-05-24 10:00",13.155,"Working","OW484"
"2023-05-24 11:00",13.151,"Working","OW484"
"2023-05-24 12:00",13.153,"Working","OW484"
"2023-05-24 13:00",13.152,"Working","OW484"
"2023-05-24 14:00",13.252,"Working","OW484"
"2023-05-24 15:00",13.214,"Working","OW484"
"2023-05-24 16:00",13.192,"Working","OW484"
"2023-05-24 17:00",13.179,"Working","OW484"
"2023-05-24 18:00",13.176,"Working","OW484"
"2023-05-24 19:00",13.169,"Working","OW484"
"2023-05-24 20:00",13.169,"Working","OW484"
"2023-05-24 21:00",13.164,"Working","OW484"
"2023-05-24 22:00",13.166,"Working","OW484"
"2023-05-24 23:00",13.163,"Working","OW484"
"2023-05-25 00:00",13.165,"Working","OW484"
"2023-05-25 01:00",13.159,"Working","OW484"
"2023-05-25 02:00",13.161,"Working","OW484"
"2023-05-25 03:00",13.161,"Working","OW484"
"2023-05-25 04:00",13.297,"Working","OW484"
"2023-05-25 05:00",13.325,"Working","OW484"
"2023-05-25 06:00",13.256,"Working","OW484"
"2023-05-25 07:00",13.227,"Working","OW484"
"2023-05-25 08:00",13.215,"Working","OW484"
"2023-05-25 09:00",13.205,"Working","OW484"
"2023-05-25 10:00",13.202,"Working","OW484"
"2023-05-25 11:00",13.195,"Working","OW484"
"2023-05-25 12:00",13.196,"Working","OW484"
"2023-05-25 13:00",13.194,"Working","OW484"
"2023-05-25 14:00",13.268,"Working","OW484"
"2023-05-25 15:00",13.246,"Working","OW484"
"2023-05-25 16:00",13.227,"Working","OW484"
"2023-05-25 17:00",13.215,"Working","OW484"
"2023-05-25 18:00",13.211,"Working","OW484"
"2023-05-25 19:00",13.253,"Working","OW484"
"2023-05-25 20:00",13.228,"Working","OW484"
"2023-05-25 21:00",13.213,"Working","OW484"
"2023-05-25 22:00",13.212,"Working","OW484"
"2023-05-25 23:00",13.23,"Working","OW484"
"2023-05-26 00:00",13.219,"Working","OW484"
"2023-05-26 01:00",13.211,"Working","OW484"
"2023-05-26 02:00",13.212,"Working","OW484"
"2023-05-26 03:00",13.21,"Working","OW484"
"2023-05-26 04:00",13.319,"Working","OW484"
"2023-05-26 05:00",13.348,"Working","OW484"
"2023-05-26 06:00",13.287,"Working","OW484"
"2023-05-26 07:00",13.264,"Working","OW484"
"2023-05-26 08:00",13.256,"Working","OW484"
"2023-05-26 09:00",13.246,"Working","OW484"
"2023-05-26 10:00",13.247,"Working","OW484"
"2023-05-26 11:00",13.242,"Working","OW484"
"2023-05-26 12:00",13.244,"Working","OW484"
"2023-05-26 13:00",13.241,"Working","OW484"
"2023-05-26 14:00",13.302,"Working","OW484"
"2023-05-26 15:00",13.288,"Working","OW484"
"2023-05-26 16:00",13.273,"Working","OW484"
"2023-05-26 17:00",13.262,"Working","OW484"
"2023-05-26 18:00",13.258,"Working","OW484"
"2023-05-26 19:00",13.313,"Working","OW484"
"2023-05-26 20:00",13.319,"Working","OW484"
"2023-05-26 21:00",13.281,"Working","OW484"
"2023-05-26 22:00",13.272,"Working","OW484"
"2023-05-26 23:00",13.261,"Working","OW484"
"2023-05-27 00:00",13.259,"Working","OW484"
"2023-05-27 01:00",13.254,"Working","OW484"
"2023-05-27 02:00",13.297,"Working","OW484"
"2023-05-27 03:00",13.273,"Working","OW484"
"2023-05-27 04:00",13.421,"Working","OW484"
"2023-05-27 05:00",13.411,"Working","OW484"
"2023-05-27 06:00",13.352,"Working","OW484"
"2023-05-27 07:00",13.325,"Working","OW484"
"2023-05-27 08:00",13.314,"Working","OW484"
"2023-05-27 09:00",13.305,"Working","OW484"
"2023-05-27 10:00",13.303,"Working","OW484"
"2023-05-27 11:00",13.298,"Working","OW484"
"2023-05-27 12:00",13.301,"Working","OW484"
"2023-05-27 13:00",13.3,"Working","OW484"
"2023-05-27 14:00",13.392,"Working","OW484"
"2023-05-27 15:00",13.362,"Working","OW484"
"2023-05-27 16:00",13.342,"Working","OW484"
"2023-05-27 17:00",13.33,"Working","OW484"
"2023-05-27 18:00",13.328,"Working","OW484"
"2023-05-27 19:00",13.32,"Working","OW484"
"2023-05-27 20:00",13.319,"Working","OW484"
"2023-05-27 21:00",13.313,"Working","OW484"
"2023-05-27 22:00",13.342,"Working","OW484"
"2023-05-27 23:00",13.326,"Working","OW484"
"2023-05-28 00:00",13.323,"Working","OW484"
"2023-05-28 01:00",13.318,"Working","OW484"
"2023-05-28 02:00",13.32,"Working","OW484"
"2023-05-28 03:00",13.387,"Working","OW484"
"2023-05-28 04:00",13.446,"Working","OW484"